STARLINK-3844 (52705 NORAD) Tracking and Keplerian Element Data

This shows tracking and keplerian element data for the satellite.

Feedback or suggestion? Click here.




ElementValue
Catalog52705
NameSTARLINK-3844
Epoch Orbit130
Epoch Day247.83334491
Epoch Year2022
RAAN128.5996
Inclination53.216
Eccentricity0.0001805
Argument of Perigee46.4869
Mean Anonmoly132.3678
Mean Motion15.08854764
Decay Rate-0.00015397
L11 52705U 22053BB 22247.83334491 -.00015397 00000+0 -95098-3 0 9993
L22 52705 53.2160 128.5996 0001805 46.4869 132.3678 15.08854764 1301

Live tracking and technical data element details for STARLINK-3844 (NORAD 52705). STARLINK-3844 can be tracked NOW for your location showing map with azimuth and elevation plus other details from your city location.

Track the satellite on the map from your city or location and see movement details for azimuth, elevation, latitude, longitude, range, height, and movement on the map or in text.







IsCatalogInMostPopularTable: catalog: 52705, numindb: 16
Update: records affected: 1



GetName: 52705 STARLINK-3844

Hit Count: updated at: Sun, 25 Sep 2022 07:05:42 GMT